Powrót do katalogu

STARLINK-38268

AktywnyŁącznośćSSO
NORAD 100321·PAYLOAD·🇺🇸 United States

Wystrzelony Aug 12, 2026 z Vandenberg Space Force Base

Loading…

Następne Przeloty (najbliższe 24 godziny)

TLE

ŚwieżeSource: Space-Track

Epoka: Sep 14, 2026, 15:12 UTC

1 A0321U 26184W   26257.63350618  .00008970  00000-0  25017-3 0  9993
2 A0321  97.2837 122.8715 0002069  96.4659 263.6821 15.36981042  6469

Śledź STARLINK-38268 w czasie rzeczywistym z AllMySat

Download on the App Store